Regional Weather Roundup
Issued by NWS

Home | Current Version | Previous Version | Text Only | Print | Product List | Glossary Off
Versions: 1 2 3 4 5 6 7 8 9 10 11 12 13 14 15 16 17 18 19 20 21 22 23 24 25 26 27 28 29 30 31 32 33 34 35 36 37 38 39 40 41 42 43 44 45 46 47 48 49 50

000
ASUS45 KSLC 101310
RWRUT

UTAH REGIONAL WEATHER ROUNDUP
NATIONAL WEATHER SERVICE SALT LAKE CITY UT
600 AM MST WED FEB 10 2016

UTZ001>011-023>025-101400-

NORTHERN UTAH

CITY           SKY/WX    TMP DP  RH WIND       PRES   REMARKS
BRIGHAM CITY   CLOUDY    14  11  87 CALM      30.49R VSB<1/4
HILL AFB       MOCLDY    22  19  89 E5        30.46R WCI  16
LOGAN          FOG        6   3  87 CALM      30.48R VSB 1/4
OGDEN          CLOUDY    25  22  88 S7        30.47R WCI  17
PROVO AIRPORT    N/A    N/A N/A N/A CALM      30.45F VSB<1/4
SALT LAKE CITY FOG       28  28 100 CALM      30.47R VSB 1/4
VERNAL         CLOUDY     8   4  83 W5        30.47S WCI   0
WENDOVER       CLOUDY    28  27  93 S3        30.47S
HEBER CITY     FOG        5   1  85 CALM      30.43S VSB 1/4
WEST JORDAN    CLOUDY    25  25 100 CALM      30.47R

$$

UTZ012>022-026-027-101400-

SOUTHERN/CENTRAL UTAH

CITY           SKY/WX    TMP DP  RH WIND       PRES   REMARKS
BLANDING       PTCLDY    26  15  62 NE3       30.50S
BRYCE CANYON   PTCLDY     7  -1  70 W9        30.46R WCI  -7
CEDAR CITY     MOCLDY    14  11  87 NE3       30.41R
DELTA          CLOUDY     5   2  89 S3        30.45R
HANKSVILLE     CLOUDY    23  23 100 CALM      30.49R
MILFORD        FOG        6   2  83 S5        30.44R VSB 1/4 WCI  -3
MOAB/CYNLANDS  MOCLDY    20  18  92 W3        30.45S
PRICE          PTCLDY    20  13  74 CALM      30.42R
ST GEORGE      MOSUNNY   36  25  64 SW3       30.41R
KANAB          CLEAR     32  25  74 N7        30.44R WCI  26

$$

REGIONAL REPORTS     COLORADO/ARIZONA

CITY           SKY/WX    TMP DP  RH WIND       PRES   REMARKS
CRAIG, CO      FOG       -3  -7  82 CALM      30.45F VSB 1/2
GRAND JUNCTION CLOUDY    20  17  88 SE9       30.46R WCI   9
RIFLE          CLOUDY    13   8  81 CALM      30.48F
MONTROSE       CLOUDY    19  11  70 SE12      30.49R WCI   7
CORTEZ         CLOUDY    16  13  88 NE8       30.45R WCI   5
PAGE, AZ       MOCLDY    31  26  82 W3        30.43R
GRAND CANYON   PTCLDY    22  16  78 NE3       30.43R
KINGMAN        MOCLDY    38  22  52 CALM      30.30R
FLAGSTAFF      PTCLDY    20  13  74 CALM      30.44R

$$

REGIONAL REPORTS    NEVADA/IDAHO/WYOMING

CITY           SKY/WX    TMP DP  RH WIND       PRES   REMARKS
LAS VEGAS, NV  MOCLDY    48  27  44 SW3       30.26R
ELY            CLOUDY    13   5  70 S14       30.42S WCI  -2
ELKO           CLOUDY     7   4  87 E8        30.46R WCI  -6
POCATELLO, ID  CLOUDY    12  10  92 N3        30.42S
BURLEY         CLEAR     24  21  88 CALM      30.37S
EVANSTON, WY   CLOUDY    26  14  60 S9        30.39S WCI  17
ROCK SPRINGS   CLOUDY    29  15  56 CALM      30.36S

$$



USA.gov is the U.S. government's official web portal to all federal, state and local government web resources and services.